TimeEST,TemperatureF,Dew PointF,Humidity,Sea Level PressureIn,VisibilityMPH,Wind Direction,Wind SpeedMPH,Gust SpeedMPH,PrecipitationIn,Events,Conditions,WindDirDegrees,DateUTC
12:15 AM,42.6,41.4,95,30.00,2.0,WSW,3.5,-,N/A,,Mostly Cloudy,250,2012-12-08 05:15:00
12:35 AM,44.4,43.0,95,30.00,10.0,Calm,Calm,-,N/A,,Scattered Clouds,0,2012-12-08 05:35:00
12:55 AM,40.8,39.6,95,30.00,0.8,Calm,Calm,-,N/A,,Overcast,0,2012-12-08 05:55:00
1:15 AM,42.1,40.6,95,30.00,3.0,Calm,Calm,-,N/A,,Scattered Clouds,0,2012-12-08 06:15:00
1:35 AM,40.6,39.4,95,29.99,0.8,Calm,Calm,-,N/A,,Mostly Cloudy,0,2012-12-08 06:35:00
1:55 AM,41.0,39.7,95,29.99,1.0,Calm,Calm,-,N/A,,Overcast,0,2012-12-08 06:55:00
2:15 AM,41.5,40.3,95,29.99,2.0,Calm,Calm,-,N/A,,Scattered Clouds,0,2012-12-08 07:15:00
2:35 AM,43.9,42.4,95,29.98,10.0,Calm,Calm,-,N/A,,Clear,0,2012-12-08 07:35:00
2:55 AM,44.6,43.2,95,29.98,10.0,Calm,Calm,-,N/A,,Scattered Clouds,0,2012-12-08 07:55:00
3:15 AM,45.3,43.7,94,29.98,10.0,SSW,3.5,-,N/A,,Mostly Cloudy,200,2012-12-08 08:15:00
3:35 AM,44.4,42.8,94,29.98,4.0,Calm,Calm,-,N/A,,Mostly Cloudy,0,2012-12-08 08:35:00
3:55 AM,45.7,43.7,93,29.98,10.0,Calm,Calm,-,N/A,,Mostly Cloudy,0,2012-12-08 08:55:00
4:15 AM,46.8,43.2,87,29.98,10.0,Calm,Calm,-,N/A,,Overcast,0,2012-12-08 09:15:00
4:35 AM,49.8,44.1,81,29.98,10.0,West,4.6,-,N/A,,Overcast,280,2012-12-08 09:35:00
4:55 AM,47.7,42.3,82,29.98,10.0,Calm,Calm,-,N/A,,Overcast,0,2012-12-08 09:55:00
5:15 AM,45.9,41.9,86,29.99,10.0,WNW,4.6,-,N/A,,Overcast,290,2012-12-08 10:15:00
5:35 AM,48.6,43.9,84,29.99,10.0,Calm,Calm,-,N/A,,Overcast,0,2012-12-08 10:35:00
5:55 AM,49.8,43.7,79,29.99,10.0,Calm,Calm,-,N/A,,Overcast,0,2012-12-08 10:55:00
6:15 AM,50.0,43.7,79,29.99,10.0,West,4.6,-,N/A,,Overcast,270,2012-12-08 11:15:00
6:35 AM,51.1,44.4,78,30.00,10.0,West,3.5,-,N/A,,Overcast,270,2012-12-08 11:35:00
6:55 AM,51.1,44.8,79,30.00,10.0,West,4.6,-,N/A,,Overcast,260,2012-12-08 11:55:00
7:15 AM,50.7,44.4,79,30.00,10.0,SW,3.5,-,N/A,,Overcast,230,2012-12-08 12:15:00
7:35 AM,49.5,43.7,81,30.01,10.0,Calm,Calm,-,N/A,,Overcast,0,2012-12-08 12:35:00
7:55 AM,48.4,43.0,82,30.01,10.0,Calm,Calm,-,N/A,,Overcast,0,2012-12-08 12:55:00
8:15 AM,50.4,43.7,78,30.02,10.0,Calm,Calm,-,N/A,,Overcast,0,2012-12-08 13:15:00
8:35 AM,50.4,44.1,79,30.02,10.0,Calm,Calm,-,N/A,,Overcast,0,2012-12-08 13:35:00
8:55 AM,51.1,44.4,78,30.02,10.0,Calm,Calm,-,N/A,,Overcast,0,2012-12-08 13:55:00
9:15 AM,50.4,44.8,81,30.02,10.0,ESE,3.5,-,N/A,,Mostly Cloudy,120,2012-12-08 14:15:00
9:35 AM,52.2,45.1,77,30.03,10.0,Calm,Calm,-,N/A,,Scattered Clouds,0,2012-12-08 14:35:00
9:55 AM,54.0,44.2,70,30.03,10.0,Calm,Calm,-,N/A,,Mostly Cloudy,0,2012-12-08 14:55:00
10:15 AM,54.0,45.1,72,30.03,10.0,Calm,Calm,-,N/A,,Overcast,0,2012-12-08 15:15:00
10:35 AM,54.0,45.1,72,30.04,10.0,Calm,Calm,-,N/A,,Overcast,0,2012-12-08 15:35:00
10:55 AM,56.1,45.0,66,30.03,10.0,West,11.5,17.3,N/A,,Overcast,270,2012-12-08 15:55:00
11:15 AM,57.2,43.7,61,30.03,10.0,West,10.4,19.6,N/A,,Overcast,260,2012-12-08 16:15:00
11:35 AM,57.2,43.5,60,30.02,10.0,West,11.5,17.3,N/A,,Mostly Cloudy,270,2012-12-08 16:35:00
11:55 AM,57.2,43.9,61,30.02,10.0,West,12.7,17.3,N/A,,Overcast,270,2012-12-08 16:55:00
12:15 PM,57.6,44.1,61,30.01,10.0,West,11.5,-,N/A,,Mostly Cloudy,270,2012-12-08 17:15:00
12:35 PM,57.7,43.7,60,30.01,10.0,West,8.1,-,N/A,,Mostly Cloudy,260,2012-12-08 17:35:00
12:55 PM,58.5,43.0,56,30.00,10.0,West,8.1,-,N/A,,Overcast,270,2012-12-08 17:55:00
1:35 PM,60.1,43.3,54,29.99,10.0,West,5.8,-,N/A,,Mostly Cloudy,260,2012-12-08 18:35:00
1:55 PM,61.3,42.4,50,29.98,10.0,WSW,3.5,-,N/A,,Mostly Cloudy,240,2012-12-08 18:55:00
2:15 PM,62.8,39.0,42,29.98,10.0,West,8.1,-,N/A,,Scattered Clouds,270,2012-12-08 19:15:00
2:35 PM,62.6,37.2,39,29.98,10.0,WSW,4.6,-,N/A,,Clear,240,2012-12-08 19:35:00
2:55 PM,62.8,34.5,35,29.98,10.0,WSW,6.9,16.1,N/A,,Clear,240,2012-12-08 19:55:00
3:15 PM,63.0,34.3,34,29.99,10.0,West,8.1,17.3,N/A,,Clear,270,2012-12-08 20:15:00
3:35 PM,62.1,34.9,36,30.00,10.0,WSW,10.4,-,N/A,,Clear,250,2012-12-08 20:35:00
3:55 PM,61.9,35.6,38,30.00,10.0,West,5.8,-,N/A,,Clear,270,2012-12-08 20:55:00
4:15 PM,61.5,37.0,40,30.00,10.0,WSW,6.9,-,N/A,,Clear,250,2012-12-08 21:15:00
4:35 PM,60.8,38.1,43,30.01,10.0,Calm,Calm,-,N/A,,Clear,0,2012-12-08 21:35:00
4:55 PM,57.6,43.0,58,30.01,10.0,SE,3.5,-,N/A,,Clear,140,2012-12-08 21:55:00
5:15 PM,56.3,43.7,63,30.02,10.0,SSE,3.5,-,N/A,,Clear,160,2012-12-08 22:15:00
5:35 PM,55.2,43.9,66,30.02,10.0,SSE,3.5,-,N/A,,Clear,160,2012-12-08 22:35:00
5:55 PM,54.1,44.6,70,30.03,10.0,South,3.5,-,N/A,,Clear,170,2012-12-08 22:55:00
6:15 PM,53.1,44.4,72,30.03,10.0,South,4.6,-,N/A,,Clear,170,2012-12-08 23:15:00
6:35 PM,52.9,44.8,74,30.03,10.0,Calm,Calm,-,N/A,,Clear,0,2012-12-08 23:35:00
6:55 PM,52.0,44.8,76,30.04,10.0,Calm,Calm,-,N/A,,Clear,0,2012-12-08 23:55:00
7:15 PM,52.5,45.0,75,30.04,10.0,SE,3.5,-,N/A,,Clear,140,2012-12-09 00:15:00
7:35 PM,52.2,45.0,76,30.04,10.0,Calm,Calm,-,N/A,,Clear,0,2012-12-09 00:35:00
7:55 PM,52.9,45.1,75,30.04,10.0,Calm,Calm,-,N/A,,Clear,0,2012-12-09 00:55:00
8:15 PM,51.4,45.0,79,30.05,10.0,Calm,Calm,-,N/A,,Clear,0,2012-12-09 01:15:00
8:55 PM,51.4,45.0,79,30.05,10.0,Calm,Calm,-,N/A,,Clear,0,2012-12-09 01:55:00
9:15 PM,51.1,45.0,80,30.05,10.0,Calm,Calm,-,N/A,,Clear,0,2012-12-09 02:15:00
9:35 PM,51.8,45.1,78,30.05,10.0,Calm,Calm,-,N/A,,Clear,0,2012-12-09 02:35:00
9:55 PM,49.5,45.0,84,30.06,10.0,Calm,Calm,-,N/A,,Clear,0,2012-12-09 02:55:00
10:15 PM,50.2,44.6,81,30.05,10.0,Calm,Calm,-,N/A,,Clear,0,2012-12-09 03:15:00
10:35 PM,50.0,44.6,82,30.05,10.0,Calm,Calm,-,N/A,,Clear,0,2012-12-09 03:35:00
10:55 PM,48.7,44.4,85,30.06,10.0,Calm,Calm,-,N/A,,Clear,0,2012-12-09 03:55:00
11:15 PM,49.3,44.6,84,30.05,10.0,Calm,Calm,-,N/A,,Clear,0,2012-12-09 04:15:00
11:35 PM,49.6,45.0,84,30.05,10.0,Calm,Calm,-,N/A,,Clear,0,2012-12-09 04:35:00
11:55 PM,47.1,44.6,91,30.06,7.0,Calm,Calm,-,N/A,,Clear,0,2012-12-09 04:55:00